Topeka, KS

11:11 AM CDT on July 21, 2017 (GMT -0500)
Billard Municipal

Weather History for KTOP - April, 2013

Change the Weather History Date:

Tuesday, April 16, 2013

  Actual Average Record
Temperature  
Mean Temperature 45 °F 55 °F  
Max Temperature 49 °F 67 °F 87 °F (1964)
Min Temperature 41 °F 44 °F 26 °F (1953)
Degree Days  
Heating Degree Days 20 11  
Month to date heating degree days 243 205  
Since 1 July heating degree days 4564 4800  
Cooling Degree Days 0 1  
Month to date cooling degree days 0 9  
Year to date cooling degree days 0 12  
Moisture  
Dew Point 31 °F    
Average Humidity 58    
Maximum Humidity 65    
Minimum Humidity 50    
Precipitation  
Precipitation T in 0.12 in 1.82 in (1969)
Month to date precipitation 1.31 1.72  
Year to date precipitation 5.76 6.39  
Snow  
Snow 0.00 in 0.10 in 1.00 in (1921)
Month to date snowfall 0.0 0.3  
Year to date snowfall 23.9 11.3  
Since 1 July snowfall 29.3 17.8  
Snow Depth 0.00 in    
Sea Level Pressure  
Sea Level Pressure 30.11 in    
Wind  
Wind Speed 13 mph (NE)    
Max Wind Speed 21 mph    
Max Gust Speed 25 mph    
Visibility 10 miles    
Events Rain    
T = Trace of Precipitation, MM = Missing Value Source: NWS Daily Summary

Daily Weather History Graph

Daily Weather History Graph

Search for Another Location

Airport or City:

Trip Planner

Search our weather history database for the weather conditions in past years. The results will help you decide how hot, cold, wet, or windy it might be!

Date:

Astronomy

Apr. 16, 2013 Rise Set
Actual Time 6:43 AM CDT 8:01 PM CDT
Civil Twilight 6:16 AM CDT 8:28 PM CDT
Nautical Twilight 5:43 AM CDT 9:02 PM CDT
Astronomical Twilight 5:08 AM CDT 9:36 PM CDT
Moon 11:04 AM CDT (4/16) 12:57 AM CDT (4/16)
Length of Visible Light 14h 12m
Length of Day
13h 17m
Waxing Crescent, 33% of the Moon is Illuminated
Apr 16
Waxing Crescent
Apr 18
First Quarter
Apr 25
Full
May 2
Last Quarter
May 9
New

Hourly Weather History & Observations

Time (CDT) Temp. Windchill Dew Point Humidity Pressure Visibility Wind Dir Wind Speed Gust Speed Precip Events Conditions
12:53 AM 43.0 °F 38.2 °F 30.0 °F 60% 30.04 in 10.0 mi NE 8.1 mph - N/A   Clear
1:53 AM 42.1 °F 37.1 °F 30.0 °F 62% 30.04 in 10.0 mi NE 8.1 mph - N/A   Clear
2:53 AM 42.1 °F 37.1 °F 30.9 °F 65% 30.05 in 10.0 mi NNE 8.1 mph - N/A   Mostly Cloudy
3:53 AM 43.0 °F 37.7 °F 30.9 °F 62% 30.06 in 10.0 mi NE 9.2 mph - N/A   Overcast
4:53 AM 43.0 °F 36.4 °F 33.1 °F 68% 30.09 in 10.0 mi NNE 12.7 mph - 0.00 in Rain Light Rain
5:53 AM 42.1 °F 35.7 °F 33.1 °F 70% 30.09 in 10.0 mi NNE 11.5 mph - 0.00 in   Overcast
6:53 AM 42.8 °F 36.6 °F 30.2 °F 61% 30.13 in 10.0 mi NNE 11.5 mph - N/A   Overcast
7:53 AM 42.1 °F 34.9 °F 30.0 °F 62% 30.15 in 10.0 mi NE 13.8 mph - 0.00 in   Overcast
8:53 AM 42.1 °F 36.6 °F 28.9 °F 60% 30.16 in 10.0 mi NE 9.2 mph - N/A   Overcast
9:53 AM 43.0 °F 35.7 °F 30.0 °F 60% 30.16 in 10.0 mi NE 15.0 mph - N/A   Overcast
10:53 AM 44.1 °F 37.7 °F 30.0 °F 58% 30.17 in 10.0 mi NE 12.7 mph - N/A   Overcast
11:53 AM 46.0 °F 39.3 °F 30.0 °F 54% 30.16 in 10.0 mi NNE 16.1 mph - N/A   Overcast
12:53 PM 46.0 °F 39.9 °F 30.0 °F 54% 30.14 in 10.0 mi NE 13.8 mph - N/A   Overcast
1:53 PM 46.9 °F - 30.0 °F 52% 30.13 in 10.0 mi NE 16.1 mph - N/A   Overcast
2:53 PM 46.9 °F - 30.9 °F 54% 30.13 in 10.0 mi NNE 11.5 mph - N/A   Overcast
3:53 PM 48.9 °F - 30.9 °F 50% 30.11 in 10.0 mi NE 11.5 mph - N/A   Overcast
4:53 PM 48.9 °F - 30.0 °F 48% 30.09 in 10.0 mi NE 15.0 mph - N/A   Overcast
5:53 PM 48.9 °F - 30.9 °F 50% 30.09 in 10.0 mi NE 15.0 mph - N/A   Overcast
6:53 PM 48.0 °F - 32.0 °F 54% 30.09 in 10.0 mi ENE 13.8 mph - N/A   Overcast
7:53 PM 48.0 °F - 32.0 °F 54% 30.09 in 10.0 mi ENE 13.8 mph - N/A   Overcast
8:53 PM 48.0 °F - 33.1 °F 56% 30.09 in 10.0 mi ENE 13.8 mph - N/A   Overcast
9:53 PM 46.9 °F - 34.0 °F 61% 30.09 in 10.0 mi ENE 11.5 mph - N/A   Overcast
10:53 PM 46.9 °F - 35.1 °F 63% 30.09 in 10.0 mi East 16.1 mph 21.9 mph N/A   Overcast
11:53 PM 46.9 °F - 36.0 °F 66% 30.09 in 10.0 mi East 18.4 mph - N/A   Overcast